Flag for Austria Weather past 2 weeks in Oberpullendorf, Burgenland, Austria

Now
94 °F

Sunny.


Feels Like: 93 °F
Forecast: 67 / 91 °F
Wind: 6 mph from Southeast

Location: Eisenstadt

Current Time: Aug 30, 2015 at 6:17:05 PM

Latest Report: Aug 30, 2015 at 5:00 PM


Visibility: 13 mi

Pressure: 30.01 "Hg

Humidity: 31%

Dew point: 59 °F

Location of OberpullendorfLocation

Historic Weather in Oberpullendorf — Graph

°F

Oberpullendorf temperature yesterday

Maximum temperature yesterday: 89 °F (at 5:00 PM)
Minimum temperature yesterday: 67 °F (at 7:00 AM)
Average temperature yesterday: 77 °F

Past Weeks' High & Low Weather Summary

 TemperatureHumidityPressure
High94 °F (Aug 30, 4:00 PM)95% (Aug 16, 3:00 AM)30.22 "Hg (Aug 16, 3:00 AM)
Low53 °F (Aug 26, 7:00 AM)29% (Aug 30, 12:00 PM)29.67 "Hg (Aug 15, 6:00 PM)
Average69 °F68%29.98 "Hg
* Reported Aug 15 5:00 PM — Aug 30 5:00 PM, Oberpullendorf, Weather by CustomWeather, © 2015

Note: Actual official high and low records may vary slightly from our data, if they occured in-between our weather recording intervals... More about our weather records

Advertising

Oberpullendorf weather history for previous 24 hours

 ConditionsComfort  
Time TempWeatherWind HumidityBarometerVisibility
5:00 PM
Sun, Aug 30
94 °FSunny.6 mph31%30.01 "Hg12 mi
4:00 PM94 °FExtremely hot.6 mph30%30.02 "HgN/A
3:00 PM94 °FExtremely hot.7 mph30%30.03 "HgN/A
2:00 PM93 °FPassing clouds.6 mph30%30.05 "Hg12 mi
1:00 PM92 °FHot.7 mph30%30.07 "HgN/A
12:00 PM90 °FHot.8 mph29%30.08 "HgN/A
11:00 AM86 °FScattered clouds.6 mph45%30.08 "Hg12 mi
10:00 AM79 °FWarm.5 mph62%30.10 "HgN/A
9:00 AM74 °FMild.3 mph70%30.10 "HgN/A
8:00 AM71 °FScattered clouds.5 mph76%30.11 "Hg12 mi
7:00 AM66 °FScattered clouds.1 mph87%30.12 "Hg12 mi
6:00 AM66 °FMild.2 mph87%30.11 "HgN/A
5:00 AM67 °FClear.1 mph85%30.11 "Hg9 mi
4:00 AM67 °FClear.2 mph84%30.12 "Hg9 mi
3:00 AM67 °FMild.3 mph81%30.12 "HgN/A
2:00 AM68 °FMild.2 mph77%30.13 "HgN/A
1:00 AM69 °FMild.2 mph74%30.14 "HgN/A
12:00 AM71 °FMild.5 mph72%30.14 "HgN/A
10:00 PM
Sat, Aug 29
74 °FMild.2 mph74%30.14 "HgN/A
9:00 PM76 °FMild.3 mph70%30.13 "HgN/A
8:00 PM79 °FWarm.2 mph65%30.11 "HgN/A
7:00 PM87 °FSunny.2 mph48%30.10 "Hg12 mi
6:00 PM89 °FHot.5 mph42%30.11 "HgN/A
Weather by CustomWeather, © 2015

See weather overviewHow to use our weather pages